Flag for Israel Weather past 2 weeks in Petah Tikva, Israel

Now
81 °F

Sunny.


Feels Like: 80 °F
Forecast: 70 / 82 °F
Wind: 1 mph from North

Location: Ben Gurion International Airport

Current Time: May 27, 2015 at 8:52:54 AM

Latest Report: May 27, 2015 at 8:20 AM


Visibility: 10 mi

Pressure: 29.83 "Hg

Humidity: 37%

Dew point: 52 °F

Location of Petah TikvaLocation

Historic Weather in Petah Tikva — Graph

°F

Petah Tikva temperature yesterday

Maximum temperature yesterday: 90 °F (at 11:20 AM)
Minimum temperature yesterday: 72 °F (at 4:50 AM)
Average temperature yesterday: 79 °F

Past Weeks' High & Low Weather Summary

 TemperatureHumidityPressure
High106 °F (May 18, 4:50 PM)83% (May 12, 11:50 PM)30.18 "Hg (May 12, 11:50 PM)
Low59 °F (May 16, 4:50 AM)6% (May 18, 12:20 PM)29.71 "Hg (May 19, 1:20 AM)
Average76 °F54%29.92 "Hg
* Reported May 12 7:20 AM — May 27 7:20 AM, Petah Tikva, Weather by CustomWeather, © 2015

Note: Actual official high and low records may vary slightly from our data, if they occured in-between our weather recording intervals... More about our weather records

Advertising

Petah Tikva weather history for previous 24 hours

 ConditionsComfort  
Time TempWeatherWind HumidityBarometerVisibility
7:20 AM
Wed, May 27
73 °FSunny.1 mph47%29.83 "Hg10 mi
6:20 AM66 °FClear.5 mph60%29.80 "Hg10 mi
5:50 AM70 °FClear.2 mph50%29.80 "Hg10 mi
5:20 AM70 °FClear.3 mph53%29.80 "Hg10 mi
4:50 AM72 °FClear.7 mph50%29.80 "Hg10 mi
4:20 AM70 °FClear.8 mph57%29.83 "Hg10 mi
3:50 AM70 °FClear.7 mph57%29.83 "Hg10 mi
3:20 AM70 °FClear.1 mph69%29.86 "Hg10 mi
2:50 AM70 °FClear.3 mph69%29.83 "Hg10 mi
2:20 AM70 °FClear.1 mph64%29.86 "Hg10 mi
1:50 AM70 °FClear.1 mph69%29.86 "Hg10 mi
1:20 AM70 °FClear.1 mph64%29.86 "Hg10 mi
12:20 AM72 °FClear.5 mph69%29.89 "Hg10 mi
11:50 PM
Tue, May 26
73 °FClear.3 mph65%29.89 "Hg10 mi
11:20 PM73 °FClear.2 mph65%29.89 "Hg10 mi
10:50 PM73 °FClear.5 mph61%29.92 "Hg10 mi
10:20 PM75 °FClear.7 mph57%29.92 "Hg10 mi
9:50 PM75 °FClear.7 mph57%29.92 "Hg10 mi
9:20 PM75 °FClear.7 mph57%29.92 "Hg10 mi
8:50 PM77 °FClear.8 mph51%29.89 "Hg10 mi
8:20 PM77 °FSunny.7 mph44%29.89 "Hg10 mi
7:50 PM77 °FSunny.5 mph51%29.89 "Hg10 mi
7:20 PM79 °FSunny.9 mph37%29.89 "Hg10 mi
6:50 PM79 °FSunny.12 mph51%29.89 "Hg10 mi
6:20 PM82 °FSunny.12 mph40%29.92 "Hg10 mi
5:50 PM82 °FSunny.9 mph42%29.89 "Hg10 mi
5:20 PM84 °FSunny.10 mph35%29.89 "Hg10 mi
4:50 PM84 °FSunny.10 mph40%29.89 "Hg10 mi
4:20 PM84 °FSunny.10 mph43%29.89 "Hg10 mi
3:50 PM84 °FSunny.14 mph40%29.89 "Hg10 mi
3:20 PM84 °FSunny.14 mph40%29.89 "Hg10 mi
2:50 PM88 °FSunny.13 mph38%29.89 "Hg10 mi
2:20 PM90 °FSunny.9 mph38%29.89 "Hg10 mi
1:50 PM88 °FSunny.8 mph40%29.89 "Hg10 mi
1:20 PM86 °FSunny.9 mph52%29.89 "Hg10 mi
12:50 PM84 °FSunny.12 mph58%29.92 "Hg10 mi
12:20 PM86 °FPassing clouds.9 mph52%29.89 "HgN/A
11:50 AM88 °FSunny.3 mph40%29.92 "Hg10 mi
11:20 AM90 °FSunny.1 mph31%29.92 "Hg10 mi
10:50 AM88 °FSunny.3 mph33%29.92 "Hg10 mi
10:20 AM86 °FSunny.2 mph38%29.92 "Hg10 mi
9:50 AM84 °FSunny.2 mph37%29.92 "Hg10 mi
9:20 AM82 °FSunny.2 mph45%29.92 "Hg10 mi
8:50 AM81 °FSunny.1 mph54%29.92 "Hg10 mi
8:20 AM79 °FSunny.2 mph65%29.92 "Hg10 mi
Weather by CustomWeather, © 2015

See weather overviewHow to use our weather pages